TimeEST,TemperatureF,Dew PointF,Humidity,Sea Level PressureIn,VisibilityMPH,Wind Direction,Wind SpeedMPH,Gust SpeedMPH,PrecipitationIn,Events,Conditions,WindDirDegrees,DateUTC
12:05 AM,46.4,46.4,100,30.10,7.0,Calm,Calm,-,N/A,,Mostly Cloudy,0,2013-01-13 05:05:00
12:26 AM,46.4,46.4,100,30.10,5.0,Calm,Calm,-,N/A,,Mostly Cloudy,0,2013-01-13 05:26:00
12:48 AM,46.4,46.4,100,30.10,7.0,Calm,Calm,-,N/A,,Mostly Cloudy,0,2013-01-13 05:48:00
1:09 AM,46.4,46.4,100,30.09,7.0,Calm,Calm,-,N/A,,Scattered Clouds,0,2013-01-13 06:09:00
1:52 AM,44.6,44.6,100,30.09,7.0,Calm,Calm,-,N/A,,Clear,0,2013-01-13 06:52:00
2:13 AM,44.6,44.6,100,30.09,5.0,Calm,Calm,-,N/A,,Clear,0,2013-01-13 07:13:00
2:34 AM,44.6,44.6,100,30.08,7.0,Calm,Calm,-,N/A,,Clear,0,2013-01-13 07:34:00
2:55 AM,44.6,44.6,100,30.08,5.0,Calm,Calm,-,N/A,,Clear,0,2013-01-13 07:55:00
3:17 AM,44.6,44.6,100,30.06,2.0,Calm,Calm,-,N/A,,Unknown,0,2013-01-13 08:17:00
3:38 AM,42.8,42.8,100,30.05,0.8,NW,3.5,-,N/A,,Unknown,320,2013-01-13 08:38:00
3:59 AM,42.8,42.8,100,30.04,2.0,NW,3.5,-,N/A,,Unknown,310,2013-01-13 08:59:00
4:20 AM,42.8,42.8,100,30.04,5.0,Calm,Calm,-,N/A,,Clear,0,2013-01-13 09:20:00
4:42 AM,42.8,42.8,100,30.03,0.8,Calm,Calm,-,N/A,,Unknown,0,2013-01-13 09:42:00
5:03 AM,42.8,42.8,100,30.02,3.0,Calm,Calm,-,N/A,,Unknown,0,2013-01-13 10:03:00
5:24 AM,42.8,42.8,100,30.02,1.5,Calm,Calm,-,N/A,,Scattered Clouds,0,2013-01-13 10:24:00
5:46 AM,41.0,41.0,100,30.03,0.5,Calm,Calm,-,N/A,,Mostly Cloudy,0,2013-01-13 10:46:00
6:07 AM,41.0,41.0,100,30.03,1.5,Calm,Calm,-,N/A,,Scattered Clouds,0,2013-01-13 11:07:00
6:49 AM,41.0,41.0,100,30.03,0.5,Calm,Calm,-,N/A,,Overcast,0,2013-01-13 11:49:00
7:11 AM,41.0,41.0,100,30.04,0.2,Calm,Calm,-,N/A,,Overcast,0,2013-01-13 12:11:00
7:32 AM,41.0,41.0,100,30.06,0.2,Calm,Calm,-,N/A,,Overcast,0,2013-01-13 12:32:00
7:53 AM,41.0,41.0,100,30.06,0.2,Calm,Calm,-,N/A,,Overcast,0,2013-01-13 12:53:00
8:14 AM,41.0,41.0,100,30.07,0.2,Calm,Calm,-,N/A,,Overcast,0,2013-01-13 13:14:00
8:35 AM,41.0,41.0,100,30.08,0.2,Calm,Calm,-,N/A,,Overcast,0,2013-01-13 13:35:00
8:57 AM,41.0,41.0,100,30.09,0.2,Calm,Calm,-,N/A,,Overcast,0,2013-01-13 13:57:00
9:18 AM,42.8,42.8,100,30.09,0.2,Calm,Calm,-,N/A,,Overcast,0,2013-01-13 14:18:00
9:39 AM,42.8,42.8,100,30.09,0.2,Calm,Calm,-,N/A,,Overcast,0,2013-01-13 14:39:00
10:00 AM,42.8,42.8,100,30.09,0.2,Calm,Calm,-,N/A,,Overcast,0,2013-01-13 15:00:00
10:22 AM,42.8,42.8,100,30.10,0.2,Calm,Calm,-,N/A,,Overcast,0,2013-01-13 15:22:00
10:43 AM,44.6,44.6,100,30.09,0.2,Calm,Calm,-,N/A,,Overcast,0,2013-01-13 15:43:00
11:04 AM,44.6,44.6,100,30.08,0.2,Calm,Calm,-,N/A,,Overcast,0,2013-01-13 16:04:00
11:25 AM,44.6,44.6,100,30.07,0.2,Calm,Calm,-,N/A,,Overcast,0,2013-01-13 16:25:00
11:47 AM,44.6,44.6,100,30.06,2.0,Calm,Calm,-,N/A,,Overcast,0,2013-01-13 16:47:00
12:08 PM,46.4,46.4,100,30.05,0.5,Calm,Calm,-,N/A,,Overcast,0,2013-01-13 17:08:00
12:29 PM,46.4,46.4,100,30.04,2.0,Calm,Calm,-,N/A,,Overcast,0,2013-01-13 17:29:00
12:50 PM,46.4,46.4,100,30.03,3.0,Calm,Calm,-,N/A,,Overcast,0,2013-01-13 17:50:00
1:12 PM,46.4,46.4,100,30.02,3.0,Calm,Calm,-,N/A,,Overcast,0,2013-01-13 18:12:00
1:33 PM,46.4,46.4,100,30.01,3.0,Calm,Calm,-,N/A,,Overcast,0,2013-01-13 18:33:00
1:54 PM,48.2,48.2,100,30.01,4.0,Calm,Calm,-,N/A,,Scattered Clouds,0,2013-01-13 18:54:00
2:15 PM,48.2,48.2,100,30.00,5.0,Calm,Calm,-,N/A,,Clear,0,2013-01-13 19:15:00
2:37 PM,50.0,50.0,100,30.00,5.0,Calm,Calm,-,N/A,,Clear,0,2013-01-13 19:37:00
2:58 PM,50.0,50.0,100,30.00,5.0,Calm,Calm,-,N/A,,Clear,0,2013-01-13 19:58:00
3:19 PM,50.0,50.0,100,30.00,5.0,Calm,Calm,-,N/A,,Clear,0,2013-01-13 20:19:00
3:40 PM,50.0,50.0,100,30.00,5.0,Calm,Calm,-,N/A,,Clear,0,2013-01-13 20:40:00
4:02 PM,50.0,50.0,100,30.00,7.0,Calm,Calm,-,N/A,,Clear,0,2013-01-13 21:02:00
4:23 PM,50.0,50.0,100,30.01,5.0,Calm,Calm,-,N/A,,Clear,0,2013-01-13 21:23:00
4:44 PM,50.0,50.0,100,30.01,5.0,Calm,Calm,-,N/A,,Clear,0,2013-01-13 21:44:00
5:05 PM,50.0,48.2,94,30.01,7.0,Calm,Calm,-,N/A,,Clear,0,2013-01-13 22:05:00
5:27 PM,50.0,50.0,100,30.00,7.0,Calm,Calm,-,N/A,,Scattered Clouds,0,2013-01-13 22:27:00
5:48 PM,50.0,50.0,100,29.99,7.0,Calm,Calm,-,N/A,,Scattered Clouds,0,2013-01-13 22:48:00
6:09 PM,50.0,50.0,100,29.99,7.0,Calm,Calm,-,N/A,,Clear,0,2013-01-13 23:09:00
6:30 PM,50.0,48.2,94,30.00,7.0,Calm,Calm,-,N/A,,Clear,0,2013-01-13 23:30:00
6:51 PM,50.0,50.0,100,30.00,5.0,Calm,Calm,-,N/A,,Scattered Clouds,0,2013-01-13 23:51:00
7:13 PM,50.0,48.2,94,29.99,5.0,Calm,Calm,-,N/A,,Overcast,0,2013-01-14 00:13:00
7:34 PM,50.0,48.2,94,29.98,5.0,Calm,Calm,-,N/A,,Overcast,0,2013-01-14 00:34:00
7:55 PM,48.2,48.2,100,29.98,5.0,Calm,Calm,-,N/A,,Overcast,0,2013-01-14 00:55:00
8:16 PM,48.2,48.2,100,29.98,5.0,Calm,Calm,-,N/A,,Overcast,0,2013-01-14 01:16:00
8:38 PM,48.2,48.2,100,29.97,5.0,Calm,Calm,-,N/A,,Mostly Cloudy,0,2013-01-14 01:38:00
8:59 PM,48.2,48.2,100,29.97,4.0,Calm,Calm,-,N/A,,Mostly Cloudy,0,2013-01-14 01:59:00
9:20 PM,48.2,48.2,100,29.97,5.0,Calm,Calm,-,N/A,,Overcast,0,2013-01-14 02:20:00
9:41 PM,48.2,48.2,100,29.97,5.0,Calm,Calm,-,N/A,,Overcast,0,2013-01-14 02:41:00
10:03 PM,48.2,48.2,100,29.96,5.0,Calm,Calm,-,N/A,,Overcast,0,2013-01-14 03:03:00
10:24 PM,48.2,48.2,100,29.96,5.0,Calm,Calm,-,N/A,,Mostly Cloudy,0,2013-01-14 03:24:00
10:45 PM,48.2,48.2,100,29.96,5.0,Calm,Calm,-,N/A,,Scattered Clouds,0,2013-01-14 03:45:00
11:07 PM,48.2,48.2,100,29.96,5.0,Calm,Calm,-,N/A,,Scattered Clouds,0,2013-01-14 04:07:00
11:28 PM,48.2,48.2,100,29.96,4.0,Calm,Calm,-,N/A,,Clear,0,2013-01-14 04:28:00
11:49 PM,48.2,48.2,100,29.97,5.0,Calm,Calm,-,N/A,,Scattered Clouds,0,2013-01-14 04:49:00